Regional Weather Roundup
Issued by NWS Northern Indiana

Home | Current Version | Previous Version | Graphics & Text | Print | Product List | Glossary On
Versions: 1 2 3 4 5 6 7 8 9 10 11 12 13 14 15 16 17 18 19 20 21 22 23 24 25 26 27 28 29 30 31 32 33 34 35 36 37 38 39 40 41 42 43 44 45 46 47 48 49 50
000
ASUS43 KIWX 211810
RWRIWX

KIWX WEATHER ROUNDUP
NATIONAL WEATHER SERVICE NORTHERN INDIANA
200 PM EDT SAT APR 21 2018

NOTE: "FAIR" INDICATES FEW OR NO CLOUDS BELOW 12,000 FEET WITH NO
SIGNIFICANT WEATHER AND/OR OBSTRUCTIONS TO VISIBILITY.

* THESE STATIONS ARE NOT UNDER NWS QUALITY CONTROL. THEY ALSO MAY NOT
  REPORT WEATHER SUCH AS PRECIPITATION OR FOG.

INZ001>027-211900-
NORTHERN INDIANA

CITY           SKY/WX    TMP DP  RH WIND       PRES   REMARKS
GARY*          CLOUDY    46  28  49 NE5       30.43F
VALPARAISO     CLOUDY    55  28  35 S3        30.42F
6HR MIN TEMP:  41; 6HR MAX TEMP:  56;

MICHIGAN CITY* PTSUNNY   52  30  43 SW3       30.43F
LAPORTE*       FAIR      52  29  42 CALM      30.43F
6HR MIN TEMP:  39; 6HR MAX TEMP:  52;

KNOX*          CLOUDY    54  30  40 SE5       30.42F
SOUTH BEND     FAIR      53  28  38 VRB3      30.44F
6HR MIN TEMP:  35; 6HR MAX TEMP:  53;

ELKHART*       SUNNY     55  28  35 SW5       30.42F
GOSHEN         FAIR      55  28  35 SW7       30.42F
6HR MIN TEMP:  36; 6HR MAX TEMP:  55;

MONTICELLO*    CLOUDY    55  24  30 SE3       30.41F
6HR MIN TEMP:  40; 6HR MAX TEMP:  55;

LOGANSPORT*    PTSUNNY   54  28  37 E10       30.41F
ROCHESTER*     FAIR      55  23  28 SE3       30.43F
WARSAW*        FAIR      54  28  37 SE3       30.43F
AUBURN*        FAIR      52  27  37 E5        30.44F
FORT WAYNE     CLOUDY    54  26  34 VRB5      30.45F
6HR MIN TEMP:  36; 6HR MAX TEMP:  54;

HUNTINGTON*    FAIR      53  19  26 CALM      30.43F
6HR MIN TEMP:  37; 6HR MAX TEMP:  54;

PERU/GRISSOM   CLOUDY    57  21  24 E9        30.40F
MARION*        PTSUNNY   55  19  24 CALM      30.42F
6HR MIN TEMP:  28; 6HR MAX TEMP:  58;


$$
INZ028>050-211900-
CENTRAL INDIANA

CITY           SKY/WX    TMP DP  RH WIND       PRES   REMARKS
LAFAYETTE      FAIR      55  28  35 E10       30.40F
6HR MIN TEMP:  40; 6HR MAX TEMP:  55;

KOKOMO*        CLOUDY    56  23  27 E6        30.42F
6HR MIN TEMP:  38; 6HR MAX TEMP:  57;

MUNCIE*        FAIR      57  20  23 VRB5      30.41F
6HR MIN TEMP:  37; 6HR MAX TEMP:  58;

INDIANAPOLIS   PTSUNNY   58  24  27 E10       30.38F
6HR MIN TEMP:  44; 6HR MAX TEMP:  58;


$$
MIZ043>046-050>051-056>058-064>065-071>073-077>080-211900-
SOUTHWEST LOWER MICHIGAN

CITY           SKY/WX    TMP DP  RH WIND       PRES   REMARKS
BATTLE CREEK   FAIR      53  29  39 S10       30.43F
6HR MIN TEMP:  39; 6HR MAX TEMP:  54;

BENTON HARBOR  FAIR      53  23  31 W7        30.43F
6HR MIN TEMP:  32; 6HR MAX TEMP:  54;

COLDWATER*     FAIR      53  26  34 SE6       30.43F
6HR MIN TEMP:  40; 6HR MAX TEMP:  54;

HILLSDALE*     PTSUNNY   50  21  32 S3        30.43F
HOLLAND        FAIR      53  23  31 W6        30.44F
6HR MIN TEMP:  34; 6HR MAX TEMP:  53;

GRAND RAPIDS   CLOUDY    55  26  32 VRB3      30.42F
6HR MIN TEMP:  33; 6HR MAX TEMP:  56;

KALAMAZOO      FAIR      55  29  36 S6        30.43F
6HR MIN TEMP:  35; 6HR MAX TEMP:  55;

STURGIS*       FAIR      57  27  31 SW6       30.42F
6HR MIN TEMP:  39; 6HR MAX TEMP:  58;

THREE RIVERS*  FAIR      57  29  34 S6        30.43F
6HR MIN TEMP:  33; 6HR MAX TEMP:  57;


$$
OHZ001>008-015>018-024>025-211900-
NORTHWEST OHIO

CITY           SKY/WX    TMP DP  RH WIND       PRES   REMARKS
WAUSEON*       FAIR      52  25  35 S3        30.45F
DEFIANCE       FAIR      54  27  35 E5        30.45F
6HR MIN TEMP:  34; 6HR MAX TEMP:  54;

FINDLAY        FAIR      55  21  26 NE8       30.44F
6HR MIN TEMP:  39; 6HR MAX TEMP:  55;

TOLEDO EXPRESS FAIR      54  26  34 VRB5      30.45F
6HR MIN TEMP:  35; 6HR MAX TEMP:  54;

TOLEDO METCALF FAIR      52  28  39 E6        30.47S
6HR MIN TEMP:  36; 6HR MAX TEMP:  53;

LIMA           FAIR      54  26  34 E9        30.43F
6HR MIN TEMP:  40; 6HR MAX TEMP:  55;


$$
AND FOR LAKE MICHIGAN COASTAL AND OPEN LAKE BUOY OBSERVATIONS

STATION/POSITION TEMP    WIND        PRES    VSBY  WAVE
                 AIR SEA DIR/SP/G                  HT/PER
                 (F)     (DEG/KT/KT) (MB)    (MI)  (FT/S)
CALUMET HARBOR    40      30/  6/  7 1029.7F
MICHIGAN CITY     41      20/  7/  7   N/A
BURNS HARBOR      41      70/  7/ 10 1030.8F
SAINT JOSEPH      52     220/  2/  3 1031.5

$$
&&



USA.gov is the U.S. government's official web portal to all federal, state and local government web resources and services.